Time,TemperatureF,DewpointF,PressureIn,WindDirection,WindDirectionDegrees,WindSpeedMPH,WindSpeedGustMPH,Humidity,HourlyPrecipIn,Conditions,Clouds,dailyrainin,SoftwareType,DateUTC
2013-05-14 00:01:00,56.5,28.9,30.15,NNE,22,0.0,0.0,35,0.00,,,0.00,WUHU21623XXSP,2013-05-14 07:01:00,
2013-05-14 00:06:00,56.1,28.6,30.14,SSW,202,0.0,0.0,36,0.00,,,0.00,WUHU21623XXSP,2013-05-14 07:06:00,
2013-05-14 00:12:00,55.9,29.1,30.14,South,180,0.0,0.0,36,0.00,,,0.00,WUHU21623XXSP,2013-05-14 07:12:00,
2013-05-14 00:25:00,55.2,29.2,30.14,NW,315,0.0,0.0,37,0.00,,,0.00,WUHU21623XXSP,2013-05-14 07:25:00,
2013-05-14 00:30:00,55.2,29.2,30.14,NW,315,0.0,0.0,37,0.00,,,0.00,WUHU21623XXSP,2013-05-14 07:30:00,
2013-05-14 00:40:00,54.7,28.7,30.14,NE,45,0.0,0.0,37,0.00,,,0.00,WUHU21623XXSP,2013-05-14 07:40:00,
2013-05-14 00:53:00,54.0,28.8,30.14,ESE,112,0.0,0.0,38,0.00,,,0.00,WUHU21623XXSP,2013-05-14 07:53:00,
2013-05-14 00:58:00,53.8,28.6,30.14,ENE,67,0.0,0.0,38,0.00,,,0.00,WUHU21623XXSP,2013-05-14 07:58:00,
2013-05-14 01:03:00,53.4,28.3,30.14,ENE,67,0.0,0.0,38,0.00,,,0.00,WUHU21623XXSP,2013-05-14 08:03:00,
2013-05-14 01:08:00,53.4,29.0,30.14,ENE,67,0.0,0.0,39,0.00,,,0.00,WUHU21623XXSP,2013-05-14 08:08:00,
2013-05-14 01:13:00,53.2,28.8,30.14,NE,45,0.0,0.0,39,0.00,,,0.00,WUHU21623XXSP,2013-05-14 08:13:00,
2013-05-14 01:19:00,52.9,29.2,30.14,SE,135,0.0,0.0,40,0.00,,,0.00,WUHU21623XXSP,2013-05-14 08:19:00,
2013-05-14 01:24:00,52.9,28.5,30.14,ESE,112,0.0,0.0,40,0.00,,,0.00,WUHU21623XXSP,2013-05-14 08:24:00,
2013-05-14 01:38:00,52.5,28.9,30.14,West,270,0.0,0.0,40,0.00,,,0.00,WUHU21623XXSP,2013-05-14 08:38:00,
2013-05-14 01:43:00,52.3,28.7,30.14,SW,225,0.0,0.0,40,0.00,,,0.00,WUHU21623XXSP,2013-05-14 08:43:00,
2013-05-14 01:48:00,52.2,29.1,30.14,WNW,292,0.0,0.0,41,0.00,,,0.00,WUHU21623XXSP,2013-05-14 08:48:00,
2013-05-14 01:53:00,52.2,29.1,30.14,WNW,292,0.0,0.0,41,0.00,,,0.00,WUHU21623XXSP,2013-05-14 08:53:00,
2013-05-14 01:58:00,52.0,28.9,30.14,WNW,292,0.0,0.0,41,0.00,,,0.00,WUHU21623XXSP,2013-05-14 08:58:00,
2013-05-14 02:03:00,51.6,28.6,30.14,NW,315,0.0,0.0,41,0.00,,,0.00,WUHU21623XXSP,2013-05-14 09:03:00,
2013-05-14 02:08:00,51.6,28.6,30.14,SSE,157,0.0,0.0,41,0.00,,,0.00,WUHU21623XXSP,2013-05-14 09:08:00,
2013-05-14 02:18:00,51.1,28.7,30.14,NNE,22,0.0,0.0,42,0.00,,,0.00,WUHU21623XXSP,2013-05-14 09:18:00,
2013-05-14 02:27:00,50.5,28.4,30.15,ESE,112,0.0,0.0,42,0.00,,,0.00,WUHU21623XXSP,2013-05-14 09:27:00,
2013-05-14 02:55:00,49.8,28.7,30.15,South,180,0.0,0.0,44,0.00,,,0.00,WUHU21623XXSP,2013-05-14 09:55:00,
2013-05-14 03:00:00,49.8,28.7,30.14,NNE,22,0.0,0.0,44,0.00,,,0.00,WUHU21623XXSP,2013-05-14 10:00:00,
2013-05-14 03:05:00,49.6,28.5,30.15,SW,225,0.0,0.0,44,0.00,,,0.00,WUHU21623XXSP,2013-05-14 10:05:00,
2013-05-14 03:10:00,49.3,28.7,30.14,West,270,0.0,0.0,45,0.00,,,0.00,WUHU21623XXSP,2013-05-14 10:10:00,
2013-05-14 03:16:00,49.1,28.5,30.14,WSW,247,0.0,0.0,45,0.00,,,0.00,WUHU21623XXSP,2013-05-14 10:16:00,
2013-05-14 03:21:00,48.9,28.4,30.14,South,180,0.0,0.0,45,0.00,,,0.00,WUHU21623XXSP,2013-05-14 10:21:00,
2013-05-14 03:27:00,48.7,28.7,30.14,SSE,157,0.0,0.0,46,0.00,,,0.00,WUHU21623XXSP,2013-05-14 10:27:00,
2013-05-14 03:33:00,48.7,28.7,30.14,South,180,0.0,0.0,46,0.00,,,0.00,WUHU21623XXSP,2013-05-14 10:33:00,
2013-05-14 03:38:00,48.6,28.6,30.14,SSE,157,0.0,0.0,46,0.00,,,0.00,WUHU21623XXSP,2013-05-14 10:38:00,
2013-05-14 03:46:00,48.2,28.2,30.14,SSE,157,0.0,0.0,46,0.00,,,0.00,WUHU21623XXSP,2013-05-14 10:46:00,
2013-05-14 03:51:00,48.0,28.1,30.14,ENE,67,0.0,0.0,46,0.00,,,0.00,WUHU21623XXSP,2013-05-14 10:51:00,
2013-05-14 03:56:00,48.0,28.1,30.14,ENE,67,0.0,0.0,46,0.00,,,0.00,WUHU21623XXSP,2013-05-14 10:56:00,
2013-05-14 04:01:00,47.8,27.9,30.14,ENE,67,0.0,0.0,46,0.00,,,0.00,WUHU21623XXSP,2013-05-14 11:01:00,
2013-05-14 04:06:00,47.8,28.4,30.14,ENE,67,0.0,0.0,47,0.00,,,0.00,WUHU21623XXSP,2013-05-14 11:06:00,
2013-05-14 04:16:00,47.3,27.9,30.14,SSE,157,0.0,0.0,47,0.00,,,0.00,WUHU21623XXSP,2013-05-14 11:16:00,
2013-05-14 04:21:00,47.3,28.1,30.13,SSE,157,0.0,0.0,47,0.00,,,0.00,WUHU21623XXSP,2013-05-14 11:21:00,
2013-05-14 04:26:00,47.1,27.8,30.14,SSE,157,0.0,0.0,47,0.00,,,0.00,WUHU21623XXSP,2013-05-14 11:26:00,
2013-05-14 04:33:00,47.1,28.3,30.14,SE,135,0.0,0.0,48,0.00,,,0.00,WUHU21623XXSP,2013-05-14 11:33:00,
2013-05-14 04:38:00,46.9,28.2,30.13,SE,135,0.0,0.0,48,0.00,,,0.00,WUHU21623XXSP,2013-05-14 11:38:00,
2013-05-14 04:57:00,46.2,28.1,30.13,SSE,157,0.0,0.0,49,0.00,,,0.00,WUHU21623XXSP,2013-05-14 11:57:00,
2013-05-14 05:02:00,46.2,28.1,30.13,SSE,157,0.0,0.0,49,0.00,,,0.00,WUHU21623XXSP,2013-05-14 12:02:00,
2013-05-14 05:08:00,46.0,27.9,30.13,ESE,112,0.0,0.0,49,0.00,,,0.00,WUHU21623XXSP,2013-05-14 12:08:00,
2013-05-14 05:13:00,46.0,27.9,30.13,SE,135,0.0,0.0,49,0.00,,,0.00,WUHU21623XXSP,2013-05-14 12:13:00,
2013-05-14 05:20:00,45.7,28.1,30.13,SE,135,0.0,0.0,50,0.00,,,0.00,WUHU21623XXSP,2013-05-14 12:20:00,
2013-05-14 05:31:00,45.3,27.8,30.13,NW,315,0.0,0.0,50,0.00,,,0.00,WUHU21623XXSP,2013-05-14 12:31:00,
2013-05-14 05:38:00,45.1,28.1,30.14,South,180,0.0,0.0,51,0.00,,,0.00,WUHU21623XXSP,2013-05-14 12:38:00,
2013-05-14 05:44:00,45.1,28.1,30.14,South,180,0.0,0.0,51,0.00,,,0.00,WUHU21623XXSP,2013-05-14 12:44:00,
2013-05-14 05:57:00,44.8,27.8,30.14,ESE,112,0.0,0.0,51,0.00,,,0.00,WUHU21623XXSP,2013-05-14 12:57:00,
2013-05-14 06:02:00,44.8,27.8,30.14,ESE,112,0.0,0.0,51,0.00,,,0.00,WUHU21623XXSP,2013-05-14 13:02:00,
2013-05-14 06:08:00,44.4,27.9,30.14,ESE,112,0.0,0.0,52,0.00,,,0.00,WUHU21623XXSP,2013-05-14 13:08:00,
2013-05-14 06:18:00,44.4,27.9,30.13,ESE,112,0.0,0.0,52,0.00,,,0.00,WUHU21623XXSP,2013-05-14 13:18:00,
2013-05-14 06:25:00,44.2,27.7,30.13,ESE,112,0.0,0.0,52,0.00,,,0.00,WUHU21623XXSP,2013-05-14 13:25:00,
2013-05-14 06:31:00,44.2,28.1,30.14,ESE,112,0.0,0.0,53,0.00,,,0.00,WUHU21623XXSP,2013-05-14 13:31:00,
2013-05-14 06:38:00,44.4,28.3,30.14,East,90,0.0,0.0,53,0.00,,,0.00,WUHU21623XXSP,2013-05-14 13:38:00,
2013-05-14 06:43:00,44.4,28.3,30.14,West,270,0.0,0.0,53,0.00,,,0.00,WUHU21623XXSP,2013-05-14 13:43:00,
2013-05-14 06:47:00,44.8,28.8,30.14,West,270,0.0,0.0,54,0.00,,,0.00,WUHU21623XXSP,2013-05-14 13:47:00,
2013-05-14 06:53:00,45.1,31.2,30.14,WNW,292,0.0,0.0,58,0.00,,,0.00,WUHU21623XXSP,2013-05-14 13:53:00,
2013-05-14 06:58:00,45.7,32.2,30.14,WNW,292,0.0,0.0,59,0.00,,,0.00,WUHU21623XXSP,2013-05-14 13:58:00,
2013-05-14 07:03:00,45.7,32.2,30.14,WNW,292,0.0,0.0,59,0.00,,,0.00,WUHU21623XXSP,2013-05-14 14:03:00,
2013-05-14 07:10:00,47.1,34.4,30.14,North,0,0.0,0.0,61,0.00,,,0.00,WUHU21623XXSP,2013-05-14 14:10:00,
2013-05-14 07:18:00,48.2,35.1,30.14,WNW,292,0.0,0.0,60,0.00,,,0.00,WUHU21623XXSP,2013-05-14 14:18:00,
2013-05-14 07:25:00,49.1,35.4,30.14,North,0,0.0,0.0,59,0.00,,,0.00,WUHU21623XXSP,2013-05-14 14:25:00,
2013-05-14 07:31:00,49.8,35.6,30.14,SSE,157,0.0,0.0,58,0.00,,,0.00,WUHU21623XXSP,2013-05-14 14:31:00,
2013-05-14 07:46:00,50.5,35.4,30.14,SE,135,0.0,0.0,56,0.00,,,0.00,WUHU21623XXSP,2013-05-14 14:46:00,
2013-05-14 07:53:00,51.1,35.7,30.13,SSW,202,0.0,0.0,56,0.00,,,0.00,WUHU21623XXSP,2013-05-14 14:53:00,
2013-05-14 07:58:00,51.4,36.2,30.13,NNE,22,0.0,0.0,56,0.00,,,0.00,WUHU21623XXSP,2013-05-14 14:58:00,
2013-05-14 08:03:00,51.8,36.5,30.13,NNE,22,0.0,0.0,56,0.00,,,0.00,WUHU21623XXSP,2013-05-14 15:03:00,
2013-05-14 08:20:00,54.1,37.8,30.13,WNW,292,0.0,0.0,54,0.00,,,0.00,WUHU21623XXSP,2013-05-14 15:20:00,
2013-05-14 08:31:00,55.2,38.3,30.13,WSW,247,0.0,0.0,53,0.00,,,0.00,WUHU21623XXSP,2013-05-14 15:31:00,
2013-05-14 08:42:00,55.9,38.5,30.12,East,90,0.0,0.0,52,0.00,,,0.00,WUHU21623XXSP,2013-05-14 15:42:00,
2013-05-14 08:55:00,57.0,39.1,30.12,South,180,0.0,0.0,51,0.00,,,0.00,WUHU21623XXSP,2013-05-14 15:55:00,
2013-05-14 09:01:00,57.6,39.6,30.12,NW,315,0.0,0.0,51,0.00,,,0.00,WUHU21623XXSP,2013-05-14 16:01:00,
2013-05-14 09:12:00,58.8,39.7,30.12,East,90,0.0,0.0,49,0.00,,,0.00,WUHU21623XXSP,2013-05-14 16:12:00,
2013-05-14 09:20:00,59.7,40.0,30.12,ESE,112,0.0,0.0,48,0.00,,,0.00,WUHU21623XXSP,2013-05-14 16:20:00,
2013-05-14 09:25:00,60.1,40.3,30.12,NW,315,0.0,0.0,48,0.00,,,0.00,WUHU21623XXSP,2013-05-14 16:25:00,
2013-05-14 09:31:00,60.6,40.2,30.11,WNW,292,0.0,0.0,47,0.00,,,0.00,WUHU21623XXSP,2013-05-14 16:31:00,
2013-05-14 09:44:00,62.4,39.8,30.11,SSE,157,0.0,0.0,43,0.00,,,0.00,WUHU21623XXSP,2013-05-14 16:44:00,
2013-05-14 09:50:00,62.8,39.8,30.10,WNW,292,0.0,0.0,43,0.00,,,0.00,WUHU21623XXSP,2013-05-14 16:50:00,
2013-05-14 10:18:00,65.5,39.1,30.09,WNW,292,0.0,0.0,38,0.00,,,0.00,WUHU21623XXSP,2013-05-14 17:18:00,
2013-05-14 10:31:00,67.3,38.2,30.09,WNW,292,1.8,1.8,35,0.00,,,0.00,WUHU21623XXSP,2013-05-14 17:31:00,
2013-05-14 10:37:00,67.8,38.2,30.09,NW,315,2.0,2.0,34,0.00,,,0.00,WUHU21623XXSP,2013-05-14 17:37:00,
2013-05-14 10:44:00,68.5,38.1,30.09,North,0,3.6,3.6,33,0.00,,,0.00,WUHU21623XXSP,2013-05-14 17:44:00,
2013-05-14 10:59:00,70.2,38.8,30.09,West,270,0.0,0.0,32,0.00,,,0.00,WUHU21623XXSP,2013-05-14 17:59:00,
2013-05-14 11:12:00,71.2,39.8,30.08,NNE,22,1.1,1.1,32,0.00,,,0.00,WUHU21623XXSP,2013-05-14 18:12:00,
2013-05-14 11:18:00,72.0,38.9,30.08,South,180,0.0,1.1,30,0.00,,,0.00,WUHU21623XXSP,2013-05-14 18:18:00,
2013-05-14 11:23:00,72.3,39.2,30.08,WNW,292,0.0,0.0,30,0.00,,,0.00,WUHU21623XXSP,2013-05-14 18:23:00,
2013-05-14 11:29:00,73.0,39.8,30.08,WNW,292,0.0,0.0,30,0.00,,,0.00,WUHU21623XXSP,2013-05-14 18:29:00,
2013-05-14 11:37:00,73.6,38.2,30.07,WNW,292,3.8,3.8,28,0.00,,,0.00,WUHU21623XXSP,2013-05-14 18:37:00,
2013-05-14 11:56:00,75.2,38.6,30.07,NW,315,1.6,1.6,27,0.00,,,0.00,WUHU21623XXSP,2013-05-14 18:56:00,
2013-05-14 12:03:00,75.7,39.1,30.06,SW,225,0.0,1.6,28,0.00,,,0.00,WUHU21623XXSP,2013-05-14 19:03:00,
2013-05-14 12:33:00,77.5,37.5,30.06,West,270,0.0,0.0,24,0.00,,,0.00,WUHU21623XXSP,2013-05-14 19:33:00,
2013-05-14 12:38:00,77.5,37.5,30.06,West,270,0.0,0.0,24,0.00,,,0.00,WUHU21623XXSP,2013-05-14 19:38:00,
2013-05-14 12:48:00,77.2,38.3,30.06,NNW,337,0.0,0.0,25,0.00,,,0.00,WUHU21623XXSP,2013-05-14 19:48:00,
2013-05-14 12:53:00,77.2,38.3,30.06,West,270,0.7,0.7,25,0.00,,,0.00,WUHU21623XXSP,2013-05-14 19:53:00,
2013-05-14 13:05:00,77.2,40.4,30.05,NNE,22,0.0,0.0,27,0.00,,,0.00,WUHU21623XXSP,2013-05-14 20:05:00,
2013-05-14 13:11:00,77.2,40.4,30.06,West,270,0.0,0.0,27,0.00,,,0.00,WUHU21623XXSP,2013-05-14 20:11:00,
2013-05-14 13:16:00,77.2,38.3,30.05,South,180,1.3,1.3,25,0.00,,,0.00,WUHU21623XXSP,2013-05-14 20:16:00,
2013-05-14 13:24:00,77.5,39.6,30.05,WSW,247,0.0,1.3,26,0.00,,,0.00,WUHU21623XXSP,2013-05-14 20:24:00,
2013-05-14 13:35:00,77.5,40.6,30.05,SE,135,1.1,1.1,27,0.00,,,0.00,WUHU21623XXSP,2013-05-14 20:35:00,
2013-05-14 13:45:00,77.5,39.6,30.06,South,180,6.9,6.9,27,0.00,,,0.00,WUHU21623XXSP,2013-05-14 20:45:00,
2013-05-14 13:56:00,77.4,40.5,30.06,SSW,202,5.8,5.8,27,0.00,,,0.00,WUHU21623XXSP,2013-05-14 20:56:00,
2013-05-14 14:07:00,76.8,40.0,30.06,SE,135,3.8,3.8,27,0.00,,,0.00,WUHU21623XXSP,2013-05-14 21:07:00,
2013-05-14 14:17:00,76.3,39.6,30.06,South,180,6.3,6.3,27,0.00,,,0.00,WUHU21623XXSP,2013-05-14 21:17:00,
2013-05-14 14:22:00,75.9,38.2,30.06,SSE,157,13.4,13.4,26,0.00,,,0.00,WUHU21623XXSP,2013-05-14 21:22:00,
2013-05-14 14:28:00,75.4,37.8,30.07,SE,135,0.0,13.4,26,0.00,,,0.00,WUHU21623XXSP,2013-05-14 21:28:00,
2013-05-14 14:34:00,75.0,36.4,30.06,SE,135,6.3,6.3,25,0.00,,,0.00,WUHU21623XXSP,2013-05-14 21:34:00,
2013-05-14 14:45:00,74.7,36.1,30.06,SSE,157,7.6,7.6,25,0.00,,,0.00,WUHU21623XXSP,2013-05-14 21:45:00,
2013-05-14 14:50:00,74.1,35.7,30.07,South,180,3.1,7.6,25,0.00,,,0.00,WUHU21623XXSP,2013-05-14 21:50:00,
2013-05-14 15:06:00,72.9,37.6,30.06,South,180,13.2,13.2,28,0.00,,,0.00,WUHU21623XXSP,2013-05-14 22:06:00,
2013-05-14 15:15:00,72.7,38.5,30.07,South,180,4.9,13.2,29,0.00,,,0.00,WUHU21623XXSP,2013-05-14 22:15:00,
2013-05-14 15:21:00,73.0,38.8,30.08,South,180,9.4,9.4,29,0.00,,,0.00,WUHU21623XXSP,2013-05-14 22:21:00,
2013-05-14 15:26:00,73.0,38.8,30.07,South,180,4.7,9.4,29,0.00,,,0.00,WUHU21623XXSP,2013-05-14 22:26:00,
2013-05-14 15:38:00,73.8,39.4,30.07,SSE,157,2.5,2.5,29,0.00,,,0.00,WUHU21623XXSP,2013-05-14 22:38:00,
2013-05-14 15:43:00,73.9,39.6,30.07,SSE,157,2.5,2.5,29,0.00,,,0.00,WUHU21623XXSP,2013-05-14 22:43:00,
2013-05-14 15:48:00,73.9,39.6,30.08,South,180,6.7,6.7,29,0.00,,,0.00,WUHU21623XXSP,2013-05-14 22:48:00,
2013-05-14 15:53:00,73.2,40.0,30.08,SSE,157,1.6,6.7,30,0.00,,,0.00,WUHU21623XXSP,2013-05-14 22:53:00,
2013-05-14 15:58:00,72.5,39.5,30.08,SSE,157,1.6,1.6,30,0.00,,,0.00,WUHU21623XXSP,2013-05-14 22:58:00,
2013-05-14 16:13:00,71.4,39.2,30.08,NNW,337,0.0,0.0,31,0.00,,,0.00,WUHU21623XXSP,2013-05-14 23:13:00,
2013-05-14 16:18:00,71.2,39.8,30.08,ESE,112,0.0,0.0,32,0.00,,,0.00,WUHU21623XXSP,2013-05-14 23:18:00,
2013-05-14 16:30:00,70.9,40.2,30.09,ESE,112,5.6,5.6,33,0.00,,,0.00,WUHU21623XXSP,2013-05-14 23:30:00,
2013-05-14 16:35:00,70.9,40.2,30.08,SE,135,1.3,5.6,33,0.00,,,0.00,WUHU21623XXSP,2013-05-14 23:35:00,
2013-05-14 16:40:00,70.7,40.1,30.08,SSW,202,0.7,1.3,33,0.00,,,0.00,WUHU21623XXSP,2013-05-14 23:40:00,
2013-05-14 16:45:00,70.5,39.9,30.08,South,180,5.8,5.8,33,0.00,,,0.00,WUHU21623XXSP,2013-05-14 23:45:00,
2013-05-14 16:51:00,70.5,39.9,30.07,SSE,157,0.0,5.8,33,0.00,,,0.00,WUHU21623XXSP,2013-05-14 23:51:00,
2013-05-14 17:02:00,70.7,40.1,30.08,SE,135,4.9,4.9,33,0.00,,,0.00,WUHU21623XXSP,2013-05-15 00:02:00,
2013-05-14 17:07:00,70.7,40.1,30.07,SE,135,0.0,4.9,33,0.00,,,0.00,WUHU21623XXSP,2013-05-15 00:07:00,
2013-05-14 17:12:00,70.9,41.0,30.07,ENE,67,0.0,0.7,33,0.00,,,0.00,WUHU21623XXSP,2013-05-15 00:12:00,
2013-05-14 17:17:00,70.9,40.2,30.07,SE,135,2.5,2.5,33,0.00,,,0.00,WUHU21623XXSP,2013-05-15 00:17:00,
2013-05-14 17:30:00,71.2,40.5,30.07,ESE,112,0.0,0.0,33,0.00,,,0.00,WUHU21623XXSP,2013-05-15 00:30:00,
2013-05-14 17:35:00,71.4,40.7,30.07,SSE,157,6.0,6.0,33,0.00,,,0.00,WUHU21623XXSP,2013-05-15 00:35:00,
2013-05-14 17:40:00,71.6,40.9,30.07,East,90,3.8,6.0,33,0.00,,,0.00,WUHU21623XXSP,2013-05-15 00:40:00,
2013-05-14 17:58:00,71.8,40.3,30.07,SSE,157,1.3,1.3,32,0.00,,,0.00,WUHU21623XXSP,2013-05-15 00:58:00,
2013-05-14 18:10:00,71.6,40.1,30.07,South,180,2.9,2.9,32,0.00,,,0.00,WUHU21623XXSP,2013-05-15 01:10:00,
2013-05-14 18:23:00,71.4,40.0,30.06,SSW,202,3.8,3.8,32,0.00,,,0.00,WUHU21623XXSP,2013-05-15 01:23:00,
2013-05-14 18:40:00,71.2,39.8,30.07,South,180,0.0,0.0,32,0.00,,,0.00,WUHU21623XXSP,2013-05-15 01:40:00,
2013-05-14 18:47:00,71.1,39.6,30.07,South,180,3.6,3.6,32,0.00,,,0.00,WUHU21623XXSP,2013-05-15 01:47:00,
2013-05-14 18:53:00,70.9,39.5,30.07,SSE,157,2.9,3.6,32,0.00,,,0.00,WUHU21623XXSP,2013-05-15 01:53:00,
2013-05-14 18:58:00,70.9,39.5,30.06,SE,135,0.0,2.9,32,0.00,,,0.00,WUHU21623XXSP,2013-05-15 01:58:00,
2013-05-14 19:03:00,70.7,39.3,30.06,SSE,157,0.0,0.0,32,0.00,,,0.00,WUHU21623XXSP,2013-05-15 02:03:00,
2013-05-14 19:08:00,70.5,39.2,30.07,ESE,112,0.0,0.0,32,0.00,,,0.00,WUHU21623XXSP,2013-05-15 02:08:00,
2013-05-14 19:17:00,70.2,38.8,30.07,SSE,157,0.0,0.0,32,0.00,,,0.00,WUHU21623XXSP,2013-05-15 02:17:00,
2013-05-14 19:23:00,70.0,38.7,30.07,SSE,157,0.0,0.0,32,0.00,,,0.00,WUHU21623XXSP,2013-05-15 02:23:00,
2013-05-14 19:28:00,69.8,38.7,30.07,SSE,157,0.0,0.0,32,0.00,,,0.00,WUHU21623XXSP,2013-05-15 02:28:00,
2013-05-14 19:34:00,69.6,38.4,30.07,SSE,157,0.0,0.0,32,0.00,,,0.00,WUHU21623XXSP,2013-05-15 02:34:00,
2013-05-14 19:42:00,68.9,38.4,30.07,ESE,112,0.0,0.0,33,0.00,,,0.00,WUHU21623XXSP,2013-05-15 02:42:00,
2013-05-14 19:57:00,68.2,37.8,30.07,East,90,0.0,0.0,34,0.00,,,0.00,WUHU21623XXSP,2013-05-15 02:57:00,
2013-05-14 20:02:00,67.8,38.2,30.07,ESE,112,0.0,0.0,34,0.00,,,0.00,WUHU21623XXSP,2013-05-15 03:02:00,
2013-05-14 20:08:00,67.3,37.8,30.07,NE,45,0.0,0.0,34,0.00,,,0.00,WUHU21623XXSP,2013-05-15 03:08:00,
2013-05-14 20:15:00,66.9,38.2,30.07,NE,45,0.0,0.0,35,0.00,,,0.00,WUHU21623XXSP,2013-05-15 03:15:00,
2013-05-14 20:20:00,66.7,38.0,30.07,NE,45,0.0,0.0,35,0.00,,,0.00,WUHU21623XXSP,2013-05-15 03:20:00,
2013-05-14 20:25:00,66.4,37.7,30.07,NE,45,0.0,0.0,35,0.00,,,0.00,WUHU21623XXSP,2013-05-15 03:25:00,
2013-05-14 20:30:00,66.2,38.4,30.08,NE,45,0.0,0.0,36,0.00,,,0.00,WUHU21623XXSP,2013-05-15 03:30:00,
2013-05-14 20:38:00,65.8,38.0,30.08,SSE,157,0.0,0.0,36,0.00,,,0.00,WUHU21623XXSP,2013-05-15 03:38:00,
2013-05-14 20:43:00,65.5,37.8,30.08,NW,315,1.1,1.1,37,0.00,,,0.00,WUHU21623XXSP,2013-05-15 03:43:00,
2013-05-14 20:49:00,65.3,38.9,30.07,ESE,112,0.0,1.1,38,0.00,,,0.00,WUHU21623XXSP,2013-05-15 03:49:00,
2013-05-14 20:54:00,65.1,38.8,30.08,ESE,112,0.0,0.0,38,0.00,,,0.00,WUHU21623XXSP,2013-05-15 03:54:00,
2013-05-14 20:59:00,64.9,38.6,30.07,NE,45,0.0,0.0,38,0.00,,,0.00,WUHU21623XXSP,2013-05-15 03:59:00,
2013-05-14 21:01:00,64.9,38.6,30.07,NE,45,0.0,0.0,38,0.00,,,0.00,WUHU21623XXSP,2013-05-15 04:01:00,
2013-05-14 21:04:00,64.8,38.4,30.08,ENE,67,0.0,0.0,38,0.00,,,0.00,WUHU21623XXSP,2013-05-15 04:04:00,
2013-05-14 21:05:00,64.8,38.4,30.08,ENE,67,0.0,0.0,38,0.00,,,0.00,WUHU21623XXSP,2013-05-15 04:05:00,
2013-05-14 21:10:00,64.8,38.4,30.09,SE,135,0.0,0.0,38,0.00,,,0.00,WUHU21623XXSP,2013-05-15 04:10:00,
2013-05-14 21:19:00,64.2,39.4,30.09,NE,45,0.0,0.0,40,0.00,,,0.00,WUHU21623XXSP,2013-05-15 04:19:00,
2013-05-14 21:29:00,64.0,38.5,30.09,NNE,22,0.0,0.0,39,0.00,,,0.00,WUHU21623XXSP,2013-05-15 04:29:00,
2013-05-14 21:36:00,63.7,38.2,30.09,NE,45,0.0,0.0,39,0.00,,,0.00,WUHU21623XXSP,2013-05-15 04:36:00,
2013-05-14 21:41:00,63.7,38.9,30.09,NNE,22,0.9,0.9,40,0.00,,,0.00,WUHU21623XXSP,2013-05-15 04:41:00,
2013-05-14 21:49:00,63.3,38.6,30.09,NNE,22,0.0,0.9,40,0.00,,,0.00,WUHU21623XXSP,2013-05-15 04:49:00,
2013-05-14 21:54:00,63.3,39.3,30.10,NE,45,0.0,0.0,41,0.00,,,0.00,WUHU21623XXSP,2013-05-15 04:54:00,
2013-05-14 22:02:00,63.3,39.2,30.10,NE,45,6.3,6.3,41,0.00,,,0.00,WUHU21623XXSP,2013-05-15 05:02:00,
2013-05-14 22:08:00,63.1,39.0,30.10,ESE,112,0.0,6.3,41,0.00,,,0.00,WUHU21623XXSP,2013-05-15 05:08:00,
2013-05-14 22:14:00,63.1,39.0,30.10,SSE,157,0.0,0.0,41,0.00,,,0.00,WUHU21623XXSP,2013-05-15 05:14:00,
2013-05-14 22:34:00,62.2,38.2,30.10,ESE,112,0.0,0.0,41,0.00,,,0.00,WUHU21623XXSP,2013-05-15 05:34:00,
2013-05-14 22:39:00,61.9,38.2,30.10,East,90,0.0,0.0,41,0.00,,,0.00,WUHU21623XXSP,2013-05-15 05:39:00,
2013-05-14 22:44:00,61.7,38.3,30.10,ENE,67,0.0,0.0,42,0.00,,,0.00,WUHU21623XXSP,2013-05-15 05:44:00,
2013-05-14 22:53:00,61.3,38.0,30.10,ENE,67,0.0,0.0,42,0.00,,,0.00,WUHU21623XXSP,2013-05-15 05:53:00,
2013-05-14 22:58:00,61.0,37.8,30.10,ENE,67,0.0,0.0,42,0.00,,,0.00,WUHU21623XXSP,2013-05-15 05:58:00,
2013-05-14 23:03:00,61.0,37.6,30.10,SE,135,0.0,0.0,42,0.00,,,0.00,WUHU21623XXSP,2013-05-15 06:03:00,
2013-05-14 23:08:00,60.6,37.3,30.10,ENE,67,0.0,0.0,42,0.00,,,0.00,WUHU21623XXSP,2013-05-15 06:08:00,
2013-05-14 23:13:00,60.4,37.1,30.10,WNW,292,0.0,0.0,42,0.00,,,0.00,WUHU21623XXSP,2013-05-15 06:13:00,
2013-05-14 23:18:00,59.9,36.7,30.10,SE,135,0.0,0.0,42,0.00,,,0.00,WUHU21623XXSP,2013-05-15 06:18:00,
2013-05-14 23:25:00,59.2,36.6,30.10,SSW,202,0.0,0.0,43,0.00,,,0.00,WUHU21623XXSP,2013-05-15 06:25:00,
2013-05-14 23:34:00,58.8,36.3,30.10,SSE,157,0.0,0.0,43,0.00,,,0.00,WUHU21623XXSP,2013-05-15 06:34:00,
2013-05-14 23:44:00,57.7,35.9,30.11,East,90,0.0,0.0,44,0.00,,,0.00,WUHU21623XXSP,2013-05-15 06:44:00,
2013-05-14 23:53:00,57.2,35.4,30.10,East,90,0.0,0.0,44,0.00,,,0.00,WUHU21623XXSP,2013-05-15 06:53:00,
2013-05-14 23:58:00,57.0,35.2,30.11,ESE,112,0.0,0.0,44,0.00,,,0.00,WUHU21623XXSP,2013-05-15 06:58:00,